COSMOS 2433 (720) 1 32275U 07052A 26255.19759663 -.00000045 00000+0 00000+0 0 9997 2 32275 65.5225 313.0027 0005397 223.8548 136.1798 2.13104026146913 COSMOS 2432 (719) 1 32276U 07052B 26255.26851492 -.00000046 00000+0 00000+0 0 9990 2 32276 65.5383 313.1296 0008627 307.5173 50.4881 2.13103011146937 COSMOS 2434 (721) 1 32393U 07065A 26252.22251193 -.00000020 00000+0 00000+0 0 9991 2 32393 64.3196 189.0826 0001481 28.9610 98.0835 2.13101148145560 COSMOS 2436 (723) 1 32395U 07065C 26255.18701825 .00000004 00000+0 00000+0 0 9994 2 32395 64.3280 189.0560 0017436 358.7557 14.4716 2.13099789145581 COSMOS 2456 (730) 1 36111U 09070A 26249.73482227 .00000037 00000+0 00000+0 0 9994 2 36111 65.0634 68.1929 0001851 353.7024 183.4854 2.13103422130164 COSMOS 2457 (733) 1 36112U 09070B 26254.96032493 -.00000003 00000+0 00000+0 0 9996 2 36112 65.0524 67.8570 0005855 130.4391 222.2066 2.13100816130279 COSMOS 2460 (732) 1 36402U 10007C 26251.21014905 -.00000027 00000+0 00000+0 0 9999 2 36402 65.3677 311.6550 0002316 209.5113 148.1159 2.13101570128498 COSMOS 2476 (744) 1 37867U 11064A 26254.09797262 .00000010 00000+0 00000+0 0 9993 2 37867 65.3238 69.9735 0022536 230.7215 322.0571 2.13103670115591 COSMOS 2477 (745) 1 37868U 11064B 26255.25716154 -.00000001 00000+0 00000+0 0 9995 2 37868 65.3304 70.0147 0019299 230.8178 311.3238 2.13102570115619 COSMOS 2475 (743) 1 37869U 11064C 26255.22503558 .00000000 00000+0 00000+0 0 9993 2 37869 65.3375 70.0384 0024498 246.3694 225.8740 2.13101319115621 COSMOS 2485 (747) 1 39155U 13019A 26250.96886674 .00000039 00000+0 00000+0 0 9996 2 39155 65.4699 70.8288 0022969 226.3838 133.4785 2.13102930104048 COSMOS 2492 (754) 1 39620U 14012A 26253.74334602 -.00000034 00000+0 00000+0 0 9991 2 39620 65.2426 311.0251 0011537 307.9222 52.0528 2.13103162097065 COSMOS 2500 (755) 1 40001U 14032A 26251.09649654 -.00000026 00000+0 00000+0 0 9991 2 40001 65.1795 310.8561 0009480 202.9458 157.0874 2.13105882095225 COSMOS 2501 (702K) 1 40315U 14075A 26254.64437777 -.00000002 00000+0 00000+0 0 9995 2 40315 63.6173 187.3806 0022192 210.5501 149.3143 2.13101274091695 COSMOS 2514 (751) 1 41330U 16008A 26254.62907380 -.00000038 00000+0 00000+0 0 9990 2 41330 64.9655 310.0358 0013708 209.9478 150.0521 2.13102586082468 COSMOS 2522 (752) 1 42939U 17055A 26253.99727932 -.00000008 00000+0 00000+0 0 9998 2 42939 64.0800 188.9651 0009576 237.0189 122.8770 2.13101798069804 COSMOS 2527 (756) 1 43508U 18053A 26254.89809332 .00000005 00000+0 00000+0 0 9991 2 43508 65.6302 71.0175 0007000 213.4884 146.5036 2.13101861064123 COSMOS 2529 (757) 1 43687U 18086A 26254.05552862 -.00000008 00000+0 00000+0 0 9990 2 43687 64.2963 189.6966 0010661 254.9299 104.9393 2.13101834061110 COSMOS 2534 (758) 1 44299U 19030A 26251.29443167 -.00000019 00000+0 00000+0 0 9992 2 44299 64.3699 189.8198 0012038 275.8196 260.4578 2.13102149056694 COSMOS 2544 (759) 1 44850U 19088A 26253.90393446 .00000015 00000+0 00000+0 0 9997 2 44850 65.6173 70.8727 0011883 245.7348 114.1821 2.13102659052549 COSMOS 2545 (760) 1 45358U 20018A 26254.09886896 -.00000036 00000+0 00000+0 0 9997 2 45358 64.2987 309.3957 0011763 235.3288 124.6388 2.13102362050498 COSMOS 2547 (705K) 1 46805U 20075A 26254.75844100 .00000000 00000+0 00000+0 0 9993 2 46805 64.6008 189.5880 0008553 236.4821 123.4270 2.13099687045750 COSMOS 2557 (706K) 1 52984U 22075A 26254.92206911 -.00000044 00000+0 00000+0 0 9990 2 52984 64.2422 311.4262 0012521 269.0241 90.9097 2.13102028032563 COSMOS 2559 (707K) 1 54031U 22130A 26254.27264640 -.00000040 00000+0 00000+0 0 9994 2 54031 64.2155 311.5293 0013509 187.9833 172.0726 2.13101663030527 COSMOS 2564 (761) 1 54377U 22161A 26255.05410311 .00000003 00000+0 00000+0 0 9994 2 54377 64.7428 189.8304 0011002 219.0104 140.9023 2.13102030029487 COSMOS 2569 (703K) 1 57517U 23114A 26255.06619013 .00000000 00000+0 00000+0 0 9990 2 57517 65.3568 69.6932 0008570 289.2479 70.6925 2.13102544024115 COSMOS 2584 (704K) 1 63130U 25042A 26254.95285329 .00000001 00000+0 00000+0 0 9997 2 63130 65.1394 69.8549 0006381 202.7942 157.2117 2.13103480011893 COSMOS 2596 (708K) 1 65590U 25206B 26255.26825492 -.00000046 00000+0 00000+0 0 9997 2 65590 64.5787 311.9496 0012332 301.9191 55.4949 2.13100809007762 COSMOS 2619 1 A0460U 26194A 26246.05024263 -.00000032 00000+0 00000+0 0 9998 2 A0460 64.7592 312.0581 0004655 49.6429 310.4698 2.12709114000221